Location: Henham
(51.9333°N, 0.2500°E)
Time: 17:00:36
(UTC+00:00)

NOSS 3-2 (A) - Pass Details

Date: 23 October 2019
Orbit: 816 x 1392 km, 63.4° (Epoch: 11 November)

Event Time Altitude Azimuth Distance (km) Brightness Sun altitude
Rises 19:42:32 0° 241° (WSW) 3,464 7.0 -27.2°
Reaches altitude 10° 19:44:56 10° 246° (WSW) 2,583 6.3 -27.6°
Maximum altitude 19:50:53 59° 325° (NW) 1,138 4.0 -28.4°
Enters shadow 19:53:56 32° 31° (NNE) 1,701 4.6 -28.9°
